Presure
355 354 355 355 354 353 353 353 353 353 352 352 351 353 357 363 361 362 346 328 313 290 287 291 289 285 289 299 284 284 303 311 304 300 300 286 279 279 270 271 271 282 277 268 275 288 282 282 278 277 278 276 274 295
360 358 359 359 358 361 364 368 370 371 370 365 360 361 366 367 367 350 344 312 315 291 283 284 277 282 297 300 280 290 294 299 309 304 303 309 278 271 276 284 272 271 275 288 277 273 274 275 276 277 279 294 313 294
391 391 383 372 369 369 371 383 391 400 416 461 434 358 351 359 365 358 330 302 305 292 284 279 279 285 292 288 289 284 296 304 293 293 288 291 285 278 270 270 276 279 274 270 269 270 272 266 276 273 318 315 306 291
423 432 458 450 440 439 462 481 471 462 456 463 475 493 352 359 368 352 314 296 288 274 279 279 292 287 287 292 297 283 295 308 305 300 291 284 290 285 280 278 280 272 267 270 266 267 264 264 306 289 294 298 291 287
508 487 469 454 465 471 471 452 451 446 439 446 458 483 352 363 357 314 298 287 280 285 282 284 283 285 296 264 290 297 305 309 285 293 281 286 277 273 271 266 260 264 263 261 255 261 264 285 285 276 276 273 308 273
475 477 478 474 440 436 455 445 434 438 447 464 465 357 356 362 324 304 287 286 284 276 271 274 300 295 284 276 293 296 298 313 287 283 284 266 264 268 269 258 256 263 263 258 258 261 270 282 272 290 284 274 266 271
462 454 451 416 411 408 413 415 419 427 447 456 347 356 362 345 309 296 288 289 290 265 284 281 277 287 274 294 298 290 284 293 290 282 267 263 265 261 253 252 260 263 254 256 262 270 274 273 274 263 283 264 253 269
402 403 403 402 400 405 410 420 411 410 348 352 357 362 322 296 284 276 257 276 273 285 288 286 280 276 280 287 293 287 280 282 278 268 264 255 258 257 252 250 259 252 256 260 275 271 268 264 262 261 268 286 260 278
333 335 347 347 351 350 346 340 343 352 355 332 311 308 293 287 288 281 276 271 270 293 278 278 282 282 287 294 286 292 290 285 286 265 266 267 261 255 252 249 250 258 261 276 272 266 265 262 265 262 273 278 276 269
313 317 332 333 328 344 335 331 316 312 284 295 291 285 281 273 270 283 246 268 276 280 279 283 294 301 292 304 285 284 276 271 263 261 259 260 253 253 246 250 258 267 275 275 264 263 265 261 264 271 280 285 287 254
312 306 309 307 309 309 309 304 296 297 276 284 285 278 276 271 275 279 270 280 281 268 277 286 288 294 294 294 290 282 266 264 262 268 268 260 256 261 254 269 265 271 272 259 259 262 257 256 258 271 307 322 273 269
283 286 288 295 297 298 263 261 257 274 273 270 266 269 265 294 272 276 266 264 273 283 291 293 294 296 283 281 277 285 276 267 263 267 268 261 264 263 272 264 270 271 256 256 258 255 247 248 251 252 260 269 272 265
291 288 282 273 292 295 290 277 279 274 264 271 270 269 269 259 259 259 265 277 286 287 283 286 288 291 291 282 280 281 283 282 274 271 265 262 273 269 268 269 269 251 253 257 253 248 244 247 248 241 239 237 234 235
285 269 255 292 271 283 281 284 282 289 288 283 280 279 278 284 266 280 274 279 289 279 279 285 285 286 283 284 287 283 277 265 276 265 267 267 266 268 263 262 253 249 251 254 248 244 241 239 240 236 235 236 232 233
280 273 287 259 260 273 280 278 276 268 282 277 277 291 293 289 287 269 279 305 283 273 276 275 280 281 278 282 282 283 283 283 277 270 272 277 271 268 267 260 247 250 243 251 246 244 232 244 236 234 234 234 233 232
268 281 294 284 283 281 279 286 292 284 277 269 293 296 304 307 326 307 324 289 275 274 281 285 281 283 283 283 282 279 276 267 272 275 276 272 266 266 271 258 247 248 245 249 241 244 239 236 235 237 235 233 232 227
304 301 297 309 308 306 303 306 312 313 309 305 319 325 327 331 319 309 293 284 278 282 281 278 273 276 275 275 273 273 271 273 276 269 273 269 261 267 276 258 248 249 244 246 247 238 241 241 235 235 236 235 237 235
330 308 308 306 314 314 307 305 308 314 314 313 314 316 325 315 315 291 281 281 281 280 277 277 276 273 274 276 274 270 273 273 270 263 266 264 265 263 272 260 250 249 248 244 246 245 240 238 242 237 231 235 238 237
302 299 300 301 301 302 301 301 304 307 306 311 309 312 319 315 300 286 283 275 280 273 272 275 276 273 272 272 271 269 267 268 268 266 263 267 261 263 268 271 257 249 248 247 243 246 246 244 238 237 239 237 239 238
317 313 313 323 315 302 302 301 308 307 318 315 312 313 319 311 298 286 281 281 277 277 276 275 273 273 276 273 270 270 270 268 265 262 266 270 265 272 259 270 272 261 252 248 251 247 246 247 247 242 240 239 238 239
326 321 311 310 311 311 311 314 311 308 308 308 309 310 306 312 304 292 283 281 279 278 279 278 276 278 275 274 274 273 272 271 268 266 264 259 262 264 265 258 268 278 268 260 255 254 251 248 247 246 247 248 247 245
321 316 313 317 319 313 305 306 307 306 313 303 301 303 304 306 310 305 295 288 282 282 281 275 274 274 272 270 265 269 270 270 271 272 273 273 272 269 270 269 265 273 271 283 270 262 258 256 250 248 248 247 246 244
344 337 329 323 315 312 309 313 313 307 301 304 306 300 296 298 299 300 295 298 298 295 291 288 285 280 274 273 273 274 275 276 277 279 277 276 275 278 283 287 288 287 290 291 270 283 285 268 264 253 254 255 251 253
400 397 383 352 340 328 322 316 312 306 309 311 303 299 298 299 298 300 296 295 291 290 292 293 292 292 289 287 287 286 287 286 284 282 288 290 283 277 283 281 276 282 282 281 279 291 299 295 293 285 269 267 270 261
414 409 414 391 386 385 374 339 330 319 315 309 305 308 309 305 298 293 293 297 297 296 295 294 295 294 284 283 286 285 282 285 288 292 287 279 278 276 275 277 276 278 281 289 290 283 287 301 296 293 300 297 291 288
428 420 421 412 405 409 393 376 374 373 345 331 320 314 310 304 302 302 304 303 297 295 292 290 286 285 285 288 289 287 285 283 282 282 280 277 276 278 283 284 286 288 288 289 294 297 295 292 292 294 296 298 299 301
265 319 438 440 436 426 412 403 401 391 373 362 369 359 331 324 319 310 304 303 303 302 301 303 302 296 292 292 292 289 288 288 288 288 289 288 289 290 289 290 290 293 290 293 296 300 302 304 306 306 306 308 308 306
293 266 272 447 449 444 435 431 422 411 401 393 386 372 357 353 366 365 335 322 315 311 312 310 305 303 301 299 298 300 299 299 298 299 296 299 299 299 302 305 305 309 314 320 328 367 412 426 436 435 428 412 397 388
328 318 270 268 452 446 440 433 427 424 429 420 404 398 394 381 372 359 346 339 346 359 368 375 350 333 329 329 321 319 318 318 316 325 325 328 334 387 383 382 382 384 387 388 387 383 381 382 394 414 416 415 414 411
338 333 323 298 268 403 441 439 427 420 414 409 412 422 417 404 393 389 378 364 355 349 344 336 330 328 327 325 332 344 348 353 357 361 367 366 364 362 358 357 355 360 359 359 359 360 368 374 370 368 366 364 362 361
300 340 332 325 303 269 398 437 435 423 417 413 407 400 397 404 421 415 399 385 380 377 366 358 352 344 337 334 333 333 331 326 321 322 322 327 329 331 330 327 326 328 328 333 339 344 347 345 342 340 338 337 335 334
285 306 340 334 325 311 272 337 450 440 429 426 420 411 404 397 391 388 389 404 407 396 383 365 373 373 362 350 342 337 332 324 322 324 325 326 324 322 323 325 331 330 327 327 327 327 327 325 323 322 322 322 321 320
274 282 331 341 335 328 312 269 369 372 440 436 431 428 423 412 402 396 387 383 379 375 391 394 382 367 357 363 370 364 353 341 335 329 323 320 318 320 315 310 310 311 314 309 307 308 311 313 313 312 312 314 315 316
Wind_Speed
61 65 65 65 65 65 66 65 64 65 64 63 62 60 57 55 53 53 53 55 55 55 61 62 59 51 46 40 38 40 38 39 44 42 46 48 44 44 45 50 50 46 47 50 53 47 47 51 51 50 49 50 50 47
60 63 64 63 64 64 64 63 62 60 59 56 55 52 51 51 52 53 55 53 54 62 62 62 53 50 45 41 41 37 37 39 40 44 42 41 46 45 46 42 42 43 46 41 43 46 45 45 46 47 47 44 30 32
60 59 61 62 63 61 61 60 59 58 57 53 55 57 54 51 54 55 57 55 59 65 66 61 55 51 46 41 36 39 38 36 38 40 40 36 38 41 41 41 40 37 38 40 42 41 40 44 44 42 28 23 22 26
48 48 52 51 47 45 40 34 32 33 35 35 36 43 56 53 57 58 57 62 65 61 64 56 55 48 41 37 37 39 35 36 37 38 37 34 33 32 33 33 29 34 38 35 35 37 39 40 28 27 25 24 20 23
26 27 29 31 29 28 24 25 26 30 30 32 36 38 55 55 57 61 66 67 63 66 60 57 49 36 35 39 38 34 31 37 35 27 29 31 31 32 34 31 35 37 34 32 37 37 36 32 24 25 23 20 22 23
19 21 22 24 25 25 28 29 28 27 25 28 34 56 55 57 65 69 69 70 71 57 51 41 48 36 30 33 34 32 27 29 34 32 30 31 35 32 28 32 36 37 30 32 35 35 32 27 22 22 24 19 22 22
26 27 26 31 28 27 27 27 26 25 26 30 53 53 56 63 68 68 66 62 62 39 50 38 35 34 33 32 29 33 28 22 31 28 31 35 33 28 30 31 40 31 29 32 31 31 26 26 23 21 26 23 23 26
36 30 27 27 32 35 38 34 36 36 46 50 52 55 66 67 65 56 39 49 40 44 40 33 31 33 33 30 27 33 31 31 30 32 35 37 33 30 28 41 34 30 32 29 26 24 24 25 25 25 26 29 27 31
45 45 45 45 46 46 47 47 47 50 54 60 62 66 65 62 62 60 48 37 34 34 27 29 34 35 32 27 26 24 27 25 27 32 36 35 30 29 36 34 33 35 29 26 24 24 22 23 23 24 27 29 34 33
48 49 52 52 50 54 57 61 62 64 46 58 55 52 50 45 40 51 31 31 28 25 27 31 25 22 26 28 31 28 28 27 29 35 34 30 34 35 33 37 37 31 26 25 25 20 16 15 20 24 29 31 32 29
48 46 48 48 50 52 53 57 52 59 33 52 52 49 45 34 36 38 26 28 26 28 27 27 21 23 25 24 31 32 33 33 33 35 32 33 35 34 35 32 30 29 25 25 21 16 13 13 13 17 21 24 26 25
31 32 31 41 43 49 27 26 26 35 35 32 30 32 29 43 28 30 22 24 28 29 28 20 20 25 27 29 30 33 37 35 33 32 29 31 36 32 28 29 29 26 27 25 22 18 17 17 15 13 11 11 16 20
28 29 25 22 33 39 42 28 34 25 18 25 25 23 24 20 23 25 29 32 32 28 22 20 23 25 28 30 31 30 30 31 33 31 26 28 25 27 27 28 29 31 30 27 24 23 21 20 20 20 20 21 24 26
12 16 17 24 18 23 23 29 27 34 36 35 32 34 29 33 32 36 35 33 31 28 23 22 26 27 26 28 28 29 30 29 27 28 31 31 29 30 33 32 35 35 31 29 29 28 26 27 26 27 28 28 29 28
10 16 11 13 13 12 14 15 18 18 22 24 23 30 33 36 32 29 33 32 33 29 26 28 29 29 28 27 27 26 27 25 26 30 30 30 34 35 36 39 39 38 34 33 33 32 30 31 31 31 31 32 32 31
7 2 7 6 12 17 18 18 21 23 21 17 25 27 29 28 30 29 31 37 34 30 29 31 30 30 29 26 24 23 24 28 32 32 33 35 35 36 38 43 40 39 37 36 36 37 37 35 35 37 37 37 36 35
13 10 8 16 17 16 13 18 20 23 20 21 23 21 21 23 23 31 35 37 34 32 31 30 27 29 29 27 27 28 31 33 34 33 33 34 38 36 39 45 43 43 41 41 41 41 42 42 40 40 42 42 43 44
17 10 12 13 20 19 16 18 20 19 20 19 17 17 18 24 29 34 35 35 35 34 33 32 31 32 32 31 32 33 35 35 32 32 32 35 35 38 39 47 46 47 48 46 47 47 47 46 47 46 43 46 48 48
3 5 8 10 11 12 14 15 16 17 16 16 17 18 22 28 35 36 37 37 38 35 33 33 33 34 35 35 34 34 34 33 33 34 35 35 38 38 41 47 53 52 52 52 51 53 53 52 51 50 51 51 53 53
7 8 9 8 10 12 14 14 14 15 14 16 19 18 21 32 37 39 39 40 39 38 38 38 37 37 39 40 39 39 40 38 37 36 38 39 38 41 42 46 52 60 58 56 59 58 58 59 59 58 58 58 57 58
6 8 11 12 12 12 12 11 13 14 14 15 16 19 21 26 37 41 42 43 42 43 43 42 40 41 41 41 42 42 42 42 41 40 41 41 42 45 45 48 51 55 62 65 65 66 66 64 64 64 65 65 65 65
11 12 11 11 13 15 16 16 16 16 17 18 19 20 22 26 30 39 45 47 47 47 47 44 43 43 43 42 40 42 44 43 44 46 48 50 51 51 51 52 51 54 56 60 68 71 72 72 69 69 69 69 69 68
18 19 18 19 18 18 18 19 21 22 22 23 24 26 27 28 30 34 38 40 44 48 50 51 50 51 49 49 50 50 51 51 51 51 51 52 53 54 52 50 50 51 52 55 61 64 70 77 78 75 76 77 75 77
16 18 22 28 28 26 25 25 25 25 26 29 29 30 31 32 33 35 38 39 41 44 45 47 49 51 53 54 55 55 55 54 54 53 54 52 51 52 52 51 52 54 54 55 57 57 59 64 69 76 82 84 86 83
17 16 19 21 24 27 33 35 35 33 33 32 32 34 37 39 38 37 39 42 44 45 46 47 50 52 51 53 55 56 55 57 58 57 54 54 55 56 56 58 58 60 61 63 62 61 63 64 65 67 69 74 79 83
21 18 19 20 22 26 29 30 32 36 42 43 41 41 42 39 39 41 46 49 50 49 49 50 50 50 52 53 53 53 55 57 57 56 57 57 59 62 64 64 65 67 66 67 69 68 67 67 67 68 69 72 74 75
49 44 21 19 18 20 24 28 32 35 36 36 38 45 50 50 48 47 50 53 51 51 51 53 55 57 58 59 58 57 59 61 62 62 64 65 67 69 69 71 68 69 68 70 71 73 73 73 73 74 75 75 75 77
49 48 50 21 18 17 18 21 24 28 32 35 39 41 43 43 43 48 57 58 58 58 59 58 58 59 60 60 61 62 62 64 66 67 67 69 70 71 72 72 73 74 75 76 76 67 55 53 52 53 55 58 61 63
52 51 47 49 21 18 17 17 18 20 23 27 32 36 40 42 45 47 47 48 48 48 48 47 57 63 64 64 67 68 68 69 70 68 70 71 72 48 48 48 47 45 43 42 42 43 43 43 40 33 32 31 31 31
53 53 52 50 47 34 22 19 18 18 19 21 23 27 31 36 39 42 45 47 49 50 51 51 52 52 52 51 50 47 45 42 39 38 35 36 38 38 39 38 39 39 38 38 37 37 35 32 32 33 33 33 34 35
72 54 54 54 52 48 39 24 21 21 21 21 21 23 24 26 29 34 38 42 44 47 50 51 51 50 51 51 50 48 46 45 44 43 40 38 36 35 35 36 37 36 37 36 35 35 35 34 34 35 35 36 37 38
72 71 55 55 55 54 49 56 22 22 25 26 25 24 24 25 26 27 29 32 36 40 43 45 45 47 50 51 51 49 46 44 43 43 42 41 40 41 40 39 38 38 39 38 38 38 39 39 40 40 41 42 42 44
68 71 61 56 55 55 54 49 50 49 24 25 28 28 26 24 25 26 28 28 29 29 32 36 40 42 42 40 42 47 49 49 48 47 44 42 41 41 41 41 40 40 40 40 41 42 43 44 45 46 47 48 49 51
Wind_Direction
250 251 251 251 251 251 251 251 250 249 247 246 244 242 239 236 230 220 212 212 213 215 224 231 236 241 244 243 238 241 243 242 242 240 231 237 238 239 246 248 251 253 256 261 265 267 263 270 273 278 281 283 283 282
249 252 252 252 252 252 251 250 248 246 243 238 234 229 224 221 215 210 202 203 206 209 222 230 236 236 240 240 238 241 245 244 236 238 240 238 238 246 249 249 252 255 260 261 261 265 270 274 275 279 282 285 266 274
256 252 249 248 249 251 252 252 252 250 247 238 234 217 214 210 205 199 193 200 200 208 219 228 234 236 237 238 238 243 248 240 237 234 236 229 230 235 242 247 250 254 254 257 262 267 272 274 282 281 277 274 263 261
254 252 246 244 246 247 242 231 225 222 218 212 211 212 204 198 197 190 188 191 203 220 224 231 231 234 238 243 244 241 250 243 239 234 235 238 233 235 238 241 241 245 249 257 265 270 276 281 278 278 280 275 255 249
217 218 219 224 220 208 197 197 196 195 196 199 200 202 192 189 187 179 185 199 210 215 222 228 233 234 244 229 247 248 245 235 236 231 225 227 226 228 232 233 240 245 250 258 264 270 274 279 259 263 264 250 249 254
184 188 182 177 175 182 177 163 163 166 180 196 190 177 182 179 173 178 194 202 209 218 225 231 235 237 231 233 249 238 232 234 231 229 223 220 227 227 229 236 245 249 255 262 269 274 278 279 268 275 265 253 248 246
129 131 135 137 143 150 151 146 143 150 162 167 168 172 169 168 170 184 195 204 208 218 224 229 231 233 229 245 234 230 228 219 215 209 218 225 231 231 236 243 246 254 261 262 271 275 273 274 278 265 271 251 246 241
105 114 122 130 131 131 126 127 131 151 151 154 157 157 160 169 184 198 204 210 215 223 228 227 229 233 236 236 232 224 224 214 211 213 221 229 233 235 239 244 251 256 261 267 266 255 259 266 270 271 271 260 244 238
101 101 105 109 115 123 125 128 134 137 139 144 154 159 170 181 188 196 206 209 214 215 221 229 232 232 235 234 224 215 222 220 215 216 220 226 231 235 236 251 256 260 264 266 244 245 252 261 270 273 273 265 245 235
107 106 103 108 112 117 127 130 136 141 157 157 167 173 180 181 190 200 195 204 213 220 227 237 243 238 231 220 217 209 210 214 211 219 225 227 233 237 243 249 256 263 259 241 242 249 261 265 276 281 275 260 242 236
112 117 119 122 126 128 133 143 152 151 160 166 174 183 190 197 200 207 210 225 224 223 235 240 232 223 214 209 213 214 218 221 223 228 229 230 239 242 246 255 257 252 237 241 245 249 242 256 271 284 281 254 231 232
119 124 131 135 140 145 138 142 144 163 166 172 176 187 193 203 206 214 206 218 232 240 237 235 227 215 214 217 222 220 222 227 230 232 232 238 244 246 246 245 242 232 232 237 236 232 234 241 236 235 234 222 215 206
136 139 139 136 146 153 162 163 175 180 176 192 194 197 201 200 211 213 221 229 231 225 227 222 213 210 213 222 227 225 228 232 237 240 238 242 247 243 240 235 224 230 232 230 227 226 231 234 229 227 226 223 221 223
135 125 127 161 151 168 169 180 185 192 199 207 215 220 218 223 219 222 219 224 216 218 218 209 209 208 209 217 221 224 227 230 231 231 235 229 225 224 222 216 220 229 231 226 227 230 231 236 235 238 241 238 240 241
115 116 127 137 140 155 185 171 192 197 209 212 224 233 234 230 232 226 230 221 216 219 217 220 219 218 220 219 217 219 222 224 223 226 230 227 220 219 217 214 225 228 233 228 232 233 239 236 241 246 249 252 255 256
97 207 243 188 177 187 194 205 212 217 219 226 236 239 241 240 236 228 213 207 218 221 219 215 216 216 221 221 219 218 215 217 223 223 221 221 223 226 222 221 231 231 235 234 238 239 241 243 246 249 253 257 258 263
220 228 245 258 267 265 263 267 265 258 253 246 256 258 247 227 207 198 201 210 218 218 216 218 223 223 226 222 219 219 221 222 221 224 224 224 226 231 231 226 235 236 242 241 241 246 247 246 251 253 256 259 261 265
231 225 245 251 255 252 248 249 247 247 245 242 241 230 223 208 194 201 209 216 217 218 221 219 220 224 227 227 224 225 226 228 229 231 234 232 234 234 238 231 239 242 244 248 248 249 252 255 254 256 263 263 264 267
226 219 220 225 233 239 241 239 238 236 235 233 227 226 214 204 194 205 212 221 220 226 230 228 226 227 230 234 234 236 240 241 241 242 244 245 241 242 242 239 238 243 246 249 254 253 255 257 260 262 263 266 267 268
265 262 259 243 241 247 250 252 249 248 242 230 222 215 212 208 203 209 219 223 230 232 231 231 232 233 232 236 240 242 244 246 247 249 250 251 252 252 250 249 245 243 249 252 253 255 257 259 261 264 265 267 269 271
282 264 264 264 257 248 244 241 240 240 235 229 230 225 217 217 213 214 222 230 234 237 237 241 243 241 242 243 245 248 251 253 256 259 259 259 259 259 257 254 254 254 250 251 254 255 257 260 262 264 266 267 269 271
299 296 293 277 261 257 258 254 244 240 236 237 234 231 229 227 224 224 227 231 237 239 242 248 250 252 254 255 256 258 259 260 261 262 263 263 263 264 264 263 261 261 259 258 255 255 257 259 262 263 265 267 269 271
284 278 275 269 269 267 261 255 250 249 246 240 234 234 236 235 233 232 233 235 239 243 245 247 248 251 256 257 258 260 260 261 261 262 262 262 263 265 265 266 266 266 265 264 259 261 261 258 260 263 265 266 268 270
300 286 270 262 263 261 259 258 256 254 249 247 247 246 243 241 240 239 239 239 241 243 246 249 251 252 253 255 257 259 262 264 265 267 267 264 264 266 267 267 267 268 267 266 266 271 272 268 266 263 262 263 265 268
329 313 287 277 270 264 256 256 254 254 252 251 250 248 246 246 247 248 248 246 245 245 245 247 249 250 253 255 257 259 262 263 264 265 263 266 267 268 269 270 270 271 273 276 277 272 274 277 272 271 271 269 267 267
347 332 308 296 285 270 265 263 259 255 251 251 251 251 252 251 250 250 250 250 250 251 252 252 253 255 255 255 256 258 261 263 264 265 266 267 270 272 273 274 275 276 277 277 278 278 277 276 275 274 273 273 273 273
17 12 336 320 300 284 273 266 261 259 258 256 255 252 251 252 251 250 252 255 255 254 254 255 256 257 259 261 262 262 263 265 267 268 269 270 271 271 273 275 276 276 277 278 279 279 279 279 278 277 276 276 276 276
13 14 13 342 326 311 295 281 271 264 260 258 256 255 255 253 254 253 252 253 256 259 259 258 257 258 260 261 263 264 264 264 266 267 269 270 272 273 274 276 277 278 279 279 280 282 285 286 286 284 282 280 278 278
12 12 12 12 348 338 324 310 298 284 274 265 261 259 257 254 254 255 254 255 256 257 258 260 260 261 262 262 264 265 267 268 269 271 272 273 274 279 280 282 283 285 287 287 288 289 290 291 293 295 292 290 288 286
10 9 10 8 11 2 345 333 325 312 299 290 280 271 265 260 257 256 255 255 255 256 257 258 259 261 262 264 265 267 269 271 272 273 274 275 277 280 283 285 286 288 289 291 292 294 295 295 294 295 294 294 293 293
12 8 8 7 7 9 3 347 335 327 320 310 299 292 285 279 270 263 258 256 255 255 255 257 257 258 260 261 263 265 266 268 270 272 273 274 274 276 279 281 283 286 288 291 294 296 297 297 296 296 295 295 294 293
12 9 5 6 6 5 6 6 341 330 325 316 312 305 298 290 282 276 272 267 262 258 256 256 257 257 257 259 262 263 265 265 266 268 269 272 273 274 276 278 280 281 284 287 290 293 294 295 295 294 294 293 293 293
9 10 3 2 3 4 3 3 3 0 338 325 318 312 306 299 289 283 277 273 268 264 263 259 256 256 256 257 258 258 259 261 263 265 267 269 270 272 274 278 281 284 287 289 291 293 294 294 294 294 295 295 295 294